Location: Orange
(40.7703°N, 74.2325°W)
Time: 21:21:10
(UTC+00:00)

Envisat - Pass Details

Date: 29 November 2022
Orbit: 763 x 765 km, 98.2° (Epoch: 07 February)

Event Time Altitude Azimuth Distance (km) Brightness Sun altitude
Rises 10:10:34 0° 1° (N) 3,242 6.1 -20.2°
Reaches altitude 10° 10:13:11 10° 349° (N) 2,311 5.3 -19.7°
Enters shadow 10:14:02 14° 343° (NNW) 2,041 4.9 -19.6°
